When you browse on this site, cookies collect data to enhance your experience and personalize the content and advertising you see.
Visit our Privacy Policy to learn more. By continuing to use the site, you agree to this use of cookies and data.
  • In United Kingdom
  • List of Countries
  • For 7 days
  • Water Temperature
  • Satellite Maps
  • Weather Map
  • Weather Widgets
  • user-avatar
    Login

    Hourly Weather Ganja

    Today, 18 July, Thursday

    Time Temperature Precipitation Wind Pressure Humidity
    00:00 +26°C° 0 mm 4 mps 720 mmHg 61%
    01:00 +26°C° 0 mm 4 mps 720 mmHg 63%
    02:00 +25°C° 0 mm 3 mps 720 mmHg 65%
    03:00 +24°C° 0 mm 2 mps 720 mmHg 68%
    04:00 +24°C° 0 mm 2 mps 720 mmHg 67%
    05:00 +25°C° 0 mm 2 mps 720 mmHg 66%
    06:00 +25°C° 0 mm 1 mps 721 mmHg 65%
    07:00 +26°C° 0 mm 2 mps 721 mmHg 62%
    08:00 +28°C° 0 mm 2 mps 720 mmHg 59%
    09:00 +29°C° 0 mm 2 mps 720 mmHg 56%
    10:00 +30°C° 0 mm 2 mps 720 mmHg 53%
    11:00 +31°C° 0 mm 2 mps 720 mmHg 50%
    12:00 +32°C° 0 mm 2 mps 720 mmHg 47%
    13:00 +34°C° 0 mm 2 mps 719 mmHg 46%
    14:00 +35°C° 0 mm 2 mps 719 mmHg 44%
    15:00 +35°C° 0 mm 2 mps 719 mmHg 42%
    16:00 +35°C° 0.1 mm 2 mps 719 mmHg 42%
    17:00 +34°C° 0.1 mm 1 mps 719 mmHg 43%
    18:00 +34°C° 0.1 mm 1 mps 719 mmHg 43%
    19:00 +34°C° 0 mm 2 mps 719 mmHg 46%
    20:00 +31°C° 0 mm 2 mps 720 mmHg 48%
    21:00 +30°C° 0 mm 2 mps 720 mmHg 51%
    22:00 +29°C° 0 mm 2 mps 720 mmHg 52%
    23:00 +29°C° 0 mm 3 mps 720 mmHg 52%

    Tomorrow, 19 July, Friday

    Time Temperature Precipitation Wind Pressure Humidity
    00:00 +28°C° 0 mm 3 mps 720 mmHg 53%
    01:00 +27°C° 0 mm 3 mps 720 mmHg 56%
    02:00 +26°C° 0 mm 2 mps 720 mmHg 59%
    03:00 +25°C° 0 mm 2 mps 720 mmHg 62%
    04:00 +26°C° 0 mm 2 mps 721 mmHg 63%
    05:00 +26°C° 0 mm 2 mps 721 mmHg 65%
    06:00 +26°C° 0 mm 3 mps 721 mmHg 66%
    07:00 +27°C° 0 mm 3 mps 721 mmHg 62%
    08:00 +29°C° 0 mm 3 mps 722 mmHg 59%
    09:00 +30°C° 0 mm 4 mps 722 mmHg 55%
    10:00 +31°C° 0 mm 3 mps 722 mmHg 52%
    11:00 +33°C° 0 mm 3 mps 722 mmHg 48%
    12:00 +34°C° 0 mm 2 mps 722 mmHg 45%
    13:00 +35°C° 0 mm 2 mps 721 mmHg 43%
    14:00 +36°C° 0 mm 2 mps 721 mmHg 41%
    15:00 +36°C° 0 mm 2 mps 721 mmHg 39%
    16:00 +36°C° 0 mm 2 mps 721 mmHg 40%
    17:00 +36°C° 0 mm 2 mps 722 mmHg 40%
    18:00 +36°C° 0 mm 2 mps 722 mmHg 41%
    19:00 +34°C° 0 mm 2 mps 723 mmHg 44%
    20:00 +33°C° 0 mm 3 mps 723 mmHg 47%
    21:00 +30°C° 0 mm 3 mps 724 mmHg 49%
    22:00 +29°C° 0 mm 3 mps 724 mmHg 52%
    23:00 +28°C° 0 mm 2 mps 724 mmHg 55%

    Day after tomorrow, 20 July, Saturday

    Time Temperature Precipitation Wind Pressure Humidity
    00:00 +27°C° 0 mm 2 mps 725 mmHg 58%
    01:00 +27°C° 0 mm 2 mps 725 mmHg 60%
    02:00 +26°C° 0 mm 2 mps 725 mmHg 61%
    03:00 +26°C° 0 mm 2 mps 725 mmHg 63%
    04:00 +26°C° 0 mm 2 mps 725 mmHg 63%
    05:00 +26°C° 0 mm 2 mps 725 mmHg 63%
    06:00 +26°C° 0 mm 3 mps 725 mmHg 63%
    07:00 +28°C° 0 mm 3 mps 725 mmHg 60%
    08:00 +29°C° 0 mm 3 mps 726 mmHg 57%
    09:00 +30°C° 0 mm 2 mps 726 mmHg 54%
    10:00 +31°C° 0 mm 3 mps 726 mmHg 50%
    11:00 +34°C° 0 mm 3 mps 726 mmHg 46%
    12:00 +35°C° 0 mm 3 mps 726 mmHg 42%
    13:00 +36°C° 0 mm 4 mps 726 mmHg 39%
    14:00 +37°C° 0 mm 5 mps 726 mmHg 36%
    15:00 +39°C° 0 mm 6 mps 725 mmHg 33%
    16:00 +38°C° 0 mm 6 mps 726 mmHg 34%
    17:00 +38°C° 0 mm 6 mps 726 mmHg 35%
    18:00 +36°C° 0 mm 6 mps 726 mmHg 36%
    19:00 +35°C° 0 mm 6 mps 726 mmHg 39%
    20:00 +33°C° 0 mm 6 mps 727 mmHg 41%
    21:00 +30°C° 0 mm 6 mps 727 mmHg 43%
    22:00 +30°C° 0 mm 6 mps 727 mmHg 44%
    23:00 +30°C° 0 mm 5 mps 728 mmHg 44%

    21 July, Sunday

    Time Temperature Precipitation Wind Pressure Humidity
    00:00 +29°C° 0 mm 5 mps 728 mmHg 45%
    01:00 +29°C° 0 mm 5 mps 728 mmHg 46%
    02:00 +28°C° 0 mm 4 mps 728 mmHg 46%
    03:00 +28°C° 0 mm 4 mps 727 mmHg 47%
    04:00 +28°C° 0 mm 4 mps 728 mmHg 48%
    05:00 +28°C° 0 mm 4 mps 728 mmHg 49%
    06:00 +28°C° 0 mm 3 mps 728 mmHg 50%
    07:00 +29°C° 0 mm 4 mps 728 mmHg 46%
    08:00 +32°C° 0 mm 5 mps 728 mmHg 42%
    09:00 +33°C° 0 mm 5 mps 728 mmHg 39%
    10:00 +34°C° 0 mm 6 mps 727 mmHg 37%
    11:00 +35°C° 0 mm 6 mps 727 mmHg 35%
    12:00 +36°C° 0 mm 7 mps 727 mmHg 34%
    13:00 +36°C° 0 mm 6 mps 726 mmHg 33%
    14:00 +38°C° 0 mm 6 mps 725 mmHg 33%
    15:00 +38°C° 0 mm 6 mps 725 mmHg 32%
    16:00 +37°C° 0 mm 5 mps 725 mmHg 34%
    17:00 +37°C° 0 mm 5 mps 725 mmHg 35%
    18:00 +36°C° 0 mm 4 mps 725 mmHg 36%
    19:00 +35°C° 0 mm 4 mps 725 mmHg 39%
    20:00 +33°C° 0 mm 4 mps 725 mmHg 42%
    21:00 +32°C° 0 mm 4 mps 726 mmHg 45%
    22:00 +30°C° 0 mm 4 mps 725 mmHg 46%
    23:00 +29°C° 0 mm 4 mps 725 mmHg 47%

    22 July, Monday

    Time Temperature Precipitation Wind Pressure Humidity
    00:00 +28°C° 0 mm 4 mps 725 mmHg 49%
    01:00 +28°C° 0 mm 3 mps 725 mmHg 51%
    02:00 +27°C° 0 mm 2 mps 725 mmHg 52%
    03:00 +26°C° 0 mm 2 mps 724 mmHg 54%
    04:00 +27°C° 0 mm 1 mps 724 mmHg 55%
    05:00 +27°C° 0 mm 1 mps 724 mmHg 55%
    06:00 +27°C° 0 mm 1 mps 724 mmHg 55%
    07:00 +28°C° 0 mm 1 mps 724 mmHg 52%
    08:00 +30°C° 0 mm 2 mps 724 mmHg 48%
    09:00 +31°C° 0 mm 2 mps 724 mmHg 44%
    10:00 +33°C° 0 mm 3 mps 724 mmHg 41%
    11:00 +35°C° 0 mm 4 mps 723 mmHg 38%
    12:00 +36°C° 0 mm 5 mps 723 mmHg 34%
    13:00 +37°C° 0 mm 5 mps 722 mmHg 34%
    14:00 +37°C° 0 mm 5 mps 722 mmHg 33%
    15:00 +37°C° 0 mm 5 mps 721 mmHg 33%
    16:00 +37°C° 0 mm 5 mps 721 mmHg 34%
    17:00 +37°C° 0 mm 4 mps 721 mmHg 36%
    18:00 +36°C° 0 mm 4 mps 721 mmHg 37%
    19:00 +35°C° 0 mm 4 mps 721 mmHg 39%
    20:00 +34°C° 0 mm 4 mps 721 mmHg 41%
    21:00 +33°C° 0 mm 4 mps 722 mmHg 43%
    22:00 +30°C° 0 mm 3 mps 722 mmHg 47%
    23:00 +29°C° 0 mm 3 mps 722 mmHg 50%

    23 July, Tuesday

    Time Temperature Precipitation Wind Pressure Humidity
    00:00 +28°C° 0 mm 2 mps 722 mmHg 53%
    01:00 +27°C° 0 mm 2 mps 721 mmHg 56%
    02:00 +27°C° 0 mm 2 mps 721 mmHg 60%
    03:00 +26°C° 0 mm 2 mps 721 mmHg 63%
    04:00 +26°C° 0 mm 2 mps 721 mmHg 62%
    05:00 +27°C° 0 mm 2 mps 722 mmHg 61%
    06:00 +27°C° 0 mm 2 mps 722 mmHg 60%
    07:00 +28°C° 0 mm 3 mps 722 mmHg 57%
    08:00 +30°C° 0 mm 3 mps 721 mmHg 53%
    09:00 +31°C° 0 mm 3 mps 721 mmHg 49%
    10:00 +33°C° 0 mm 3 mps 721 mmHg 46%
    11:00 +34°C° 0 mm 3 mps 721 mmHg 42%
    12:00 +35°C° 0 mm 2 mps 721 mmHg 39%
    13:00 +36°C° 0 mm 3 mps 720 mmHg 37%
    14:00 +36°C° 0 mm 3 mps 720 mmHg 35%
    15:00 +37°C° 0 mm 3 mps 720 mmHg 33%
    16:00 +36°C° 0 mm 3 mps 720 mmHg 34%
    17:00 +36°C° 0 mm 3 mps 720 mmHg 35%
    18:00 +36°C° 0 mm 3 mps 720 mmHg 37%
    19:00 +34°C° 0 mm 3 mps 720 mmHg 40%
    20:00 +32°C° 0 mm 2 mps 721 mmHg 43%
    21:00 +30°C° 0 mm 2 mps 721 mmHg 46%
    22:00 +30°C° 0 mm 2 mps 721 mmHg 49%
    23:00 +29°C° 0 mm 2 mps 721 mmHg 52%
    Show more